Weather History for St.-Jovite, QC

Change the Weather History Date:

Tuesday, October 30, 2012

  Actual Average Record
Temperature  
Mean Temperature 59 °F -  
Max Temperature 64 °F - - ()
Min Temperature 54 °F - - ()
Degree Days  
Heating Degree Days 6    
Growing Degree Days 9 (Base 50)    
Moisture  
Dew Point 54 °F    
Average Humidity 84    
Maximum Humidity 97    
Minimum Humidity 71    
Precipitation  
Precipitation 0.08 in - - ()
Sea Level Pressure  
Sea Level Pressure 29.52 in    
Wind  
Wind Speed 6 mph ()    
Max Wind Speed 10 mph    
Max Gust Speed 28 mph    
T = Trace of Precipitation, MM = Missing Value Source: Averaged Metar Reports

Daily Weather History Graph

Daily Weather History Graph

Search for Another Location

Airport:

Trip Planner

Search our weather history database for the weather conditions in past years. The results will help you decide how hot, cold, wet, or windy it might be!

Date:

Astronomy

Oct. 30, 2012 Rise Set
Actual Time 7:36 AM EDT 5:46 PM EDT
Civil Twilight 7:05 AM EDT 6:17 PM EDT
Nautical Twilight 6:30 AM EDT 6:52 PM EDT
Astronomical Twilight 5:55 AM EDT 7:27 PM EDT
Moon 6:09 PM EDT (10/30) 8:25 AM EDT (10/30)
Length of Visible Light 11h 11m
Length of Day
10h 09m
Full, 99% of the Moon is Illuminated
Oct 30
Full
Nov 6
Last Quarter
Nov 13
New
Nov 20
First Quarter
Nov 28
Full

Hourly Weather History & Observations

Time (EDT) Temp. Dew Point Humidity Pressure Visibility Wind Dir Wind Speed Gust Speed Precip Events Conditions
12:00 AM 58.8 °F 50.0 °F 73% 29.54 in - ENE 10.4 mph 27.6 mph N/A   Unknown
1:00 AM 58.6 °F 50.4 °F 74% 29.52 in - ENE 9.2 mph 24.2 mph N/A   Unknown
2:00 AM 55 °F 53 °F 88% 29.51 in - ENE 6.9 mph - -  
2:00 AM 54.9 °F 52.5 °F 92% 29.51 in - ENE 6.9 mph - 0.12 in   Unknown
3:00 AM 55.8 °F 52.0 °F 87% 29.50 in - East 5.8 mph - N/A   Unknown
4:00 AM 56.5 °F 51.3 °F 83% 29.49 in - ENE 10.4 mph 25.3 mph N/A   Unknown
5:00 AM 55.8 °F 51.1 °F 84% 29.49 in - ENE 8.1 mph 24.2 mph N/A   Unknown
6:00 AM 56.1 °F 50.7 °F 82% 29.50 in - East 8.1 mph - N/A   Unknown
7:00 AM 55.8 °F 50.7 °F 83% 29.49 in - East 5.8 mph 17.3 mph N/A   Unknown
8:00 AM 57 °F 51 °F 75% 29.50 in - ENE 6.9 mph - -  
8:00 AM 56.7 °F 51.3 °F 82% 29.50 in - ENE 6.9 mph 17.3 mph N/A   Unknown
9:00 AM 55.4 °F 52.9 °F 91% 29.53 in - ENE 9.2 mph 25.3 mph N/A   Unknown
10:00 AM 56.5 °F 53.2 °F 89% 29.55 in - East 6.9 mph - N/A   Unknown
11:00 AM 59.0 °F 53.4 °F 82% 29.53 in - East 6.9 mph 18.4 mph N/A   Unknown
12:00 PM 60.4 °F 53.4 °F 78% 29.54 in - East 6.9 mph - N/A   Unknown
1:00 PM 63.9 °F 54.3 °F 71% 29.51 in - East 5.8 mph - N/A   Unknown
2:00 PM 59 °F 57 °F 90% 29.52 in - East 3.5 mph - -  
2:00 PM 58.8 °F 56.8 °F 93% 29.52 in - East 3.5 mph - 0.08 in   Unknown
3:00 PM 61.9 °F 56.8 °F 84% 29.51 in - East 5.8 mph - N/A   Unknown
4:00 PM 63.7 °F 56.8 °F 78% 29.51 in - East 3.5 mph - N/A   Unknown
5:00 PM 62.2 °F 56.5 °F 81% 29.52 in - East 4.6 mph - N/A   Unknown
6:00 PM 60.6 °F 55.9 °F 85% 29.53 in - East 3.5 mph - N/A   Unknown
7:00 PM 59.2 °F 55.4 °F 87% 29.55 in - East 3.5 mph - N/A   Unknown
8:00 PM 60 °F 55 °F 79% 29.55 in - ENE 3.5 mph - -  
8:00 PM 59.9 °F 55.2 °F 84% 29.55 in - ENE 3.5 mph - N/A   Unknown
9:00 PM 60.1 °F 54.9 °F 83% 29.54 in - ENE 5.8 mph - N/A   Unknown
10:00 PM 59.4 °F 55.4 °F 87% 29.54 in - ENE 4.6 mph - N/A   Unknown
11:00 PM 57.9 °F 57.0 °F 97% 29.53 in - East 2.3 mph - N/A   Unknown